[[{"header":{"parameterUnit":"m.s-1","parameterCategory":1,"la1":30.2991,"la2":30.254,"lo1":-89.0895,"lo2":-89.0444,"dy":0.0017,"dx":0.0017,"nx":28,"ny":28,"refTime":"2025-12-29T03:00:00:Z","depth":0,"parameterNumber":2,"parameterNumberName":"U-component_of_WINDS"},"data":[0,0,0,0,0,0,0,0,0,0,0,0,0,0,0,0,0,0,0,0,0,0,0,0,0,0,0,0,0,0,0,0,0,0,0,0,0,0,0,0,0,0,0,0,0,0,0,0,0,0,0,0,0,0,0,0,0,0,2.2661,2.2661,0,2.2664,2.2664,2.2664,2.2639,2.2639,2.2638,2.2638,2.2639,2.2639,2.264,0,0,0,0,0,0,0,0,0,0,0,0,0,2.2635,2.2636,2.2661,2.2661,2.2661,2.2664,2.2664,2.2664,2.264,2.2639,2.2638,2.2637,2.2638,2.2639,2.264,0,0,0,0,0,0,0,0,0,0,0,0,0,2.2643,2.2636,2.2661,2.2649,2.2648,2.2664,2.2664,2.2664,2.264,2.2639,2.2638,2.2637,2.2638,2.2639,2.264,2.2666,0,0,2.2643,2.2643,0,0,0,0,0,0,0,0,2.2643,2.2644,2.2651,2.265,2.2649,2.265,2.2655,2.2664,2.264,2.2643,2.2637,2.2636,2.2643,2.2644,2.2646,2.2666,2.2666,2.2643,2.2644,2.2644,2.2644,0,0,0,0,0,0,0,2.2642,2.2644,2.2662,2.2651,2.265,2.2644,2.2644,2.2657,2.2649,2.2643,2.2641,2.2642,2.2642,2.2645,2.2646,2.2666,2.2643,2.2644,2.2645,2.2645,2.2709,2.271,0,0,0,0,0,0,2.2643,2.2643,2.2662,2.2662,2.2643,2.2645,2.2645,2.2651,2.2648,2.2647,2.2642,2.2641,2.2644,2.2645,2.2646,2.2677,2.2644,2.2645,2.2646,2.2708,2.271,2.2711,0,0,0,0,0,0,2.2643,2.2645,2.2662,2.2652,2.2654,2.2647,2.2653,2.2651,2.2654,2.2648,2.2647,2.2647,2.2643,2.2645,2.2662,2.2677,2.2645,2.2646,2.2707,2.2709,2.271,2.2739,0,0,0,0,0,0,2.2642,2.2645,2.2655,2.2653,2.2655,2.2677,2.2654,2.2652,2.2656,2.2654,2.2652,2.2651,2.2643,2.266,2.2663,2.2678,2.2647,2.2705,2.2708,2.271,2.2737,2.2742,2.2746,0,0,0,0,0,2.2641,2.2662,2.2655,2.2658,2.2666,2.2678,2.2679,2.267,2.2658,2.2667,2.2664,2.2651,2.2675,2.2662,2.2665,2.268,2.2704,2.2707,2.2709,2.2735,2.2741,2.2746,0,0,0,0,0,0,2.2664,2.2661,2.2654,2.2674,2.2677,2.2674,2.2686,2.2676,2.2682,2.2679,2.2667,2.2667,2.2686,2.2685,2.2671,2.2706,2.2688,2.2691,2.2706,2.2712,2.2716,2.2715,2.2648,0,0,0,0,0,2.2672,2.2682,2.2679,2.2697,2.2699,2.2693,2.2697,2.269,2.2692,2.2693,2.269,2.2693,2.2701,2.2706,2.2713,2.2737,2.2737,2.2749,2.2754,2.2757,2.276,2.2773,2.2779,2.2719,2.2719,2.2719,0,0,2.2688,2.2687,2.2694,2.2702,2.2703,2.2714,2.2693,2.2705,2.2713,2.2694,2.2711,2.2709,2.2711,2.2732,2.2741,2.2731,2.2777,2.276,2.2763,2.2764,2.2777,2.2782,2.2787,2.2721,2.272,2.272,0,0,2.2721,2.2722,2.2738,2.274,2.2743,2.2739,2.2743,2.2742,2.2741,2.2757,2.2744,2.2754,2.2768,2.277,2.2773,2.2811,2.2799,2.2814,2.2836,2.285,2.2855,2.2859,2.2873,2.2878,2.2816,2.2816,2.2816,0,2.274,2.2756,2.2747,2.2761,2.2765,2.2751,2.2767,2.277,2.2774,2.2778,2.2767,2.2786,2.2786,2.2808,2.2817,2.282,2.2825,2.2813,2.2855,2.2859,2.2863,2.2876,2.2881,2.2818,2.2818,2.2818,2.2818,0,2.2779,2.2791,2.2804,2.281,2.2816,2.2831,2.2825,2.2832,2.2826,2.2823,2.2841,2.2841,2.2848,2.2853,2.2846,2.2874,2.2869,2.2857,2.2838,2.287,2.2882,2.2887,2.282,2.282,2.2819,2.2819,0,0,2.2825,2.2829,2.2833,2.2837,2.284,2.2849,2.2864,2.2872,2.2879,2.2883,2.2896,2.291,2.2899,2.2903,2.2896,2.2908,2.294,2.2895,2.2895,2.2903,2.2972,2.298,2.2986,2.2933,2.2934,2.2934,2.2972,0,2.2858,2.2884,2.2878,2.2904,2.2915,2.2903,2.2916,2.292,2.2918,2.2927,2.2926,2.2936,2.2921,2.2924,2.2935,2.2933,2.2953,2.2931,2.2944,2.2945,2.2943,2.2992,2.3001,2.3036,2.2976,2.2977,2.2978,0,2.2899,2.2907,2.2934,2.2938,2.2942,2.2954,2.2962,2.2972,2.2976,2.2974,2.298,2.2972,2.2987,2.2969,2.2991,2.2976,2.2981,2.2982,2.2983,2.2983,2.2962,2.2994,2.3047,2.3052,2.2985,2.2985,2.2984,0,2.2931,2.2948,2.2966,2.297,2.2974,2.2983,2.2985,2.2989,2.2995,2.3002,2.3006,2.3015,2.302,2.3027,2.3022,2.301,2.3045,2.3026,2.3044,2.3044,2.3051,2.305,2.3105,2.3055,2.3055,2.3055,2.3055,0,2.2968,2.2985,2.2981,2.2992,2.3012,2.3005,2.3025,2.3025,2.3029,2.3041,2.3031,2.3042,2.3035,2.3046,2.3042,2.3061,2.3063,2.3062,2.3061,2.3062,2.3063,2.3065,2.3062,2.3057,2.3056,2.3056,2.3056,0,2.3005,2.3003,2.3022,2.3026,2.3027,2.3041,2.3044,2.3055,2.3054,2.3069,2.3073,2.3071,2.3083,2.3079,2.3092,2.309,2.3114,2.311,2.3113,2.3111,2.3129,2.3128,2.3187,2.3195,2.3141,2.3141,2.3142,0,2.3028,2.3041,2.3047,2.3054,2.3058,2.307,2.3077,2.3072,2.308,2.3087,2.3098,2.311,2.3119,2.3139,2.3139,2.3149,2.3145,2.3165,2.3146,2.3148,2.3145,2.3144,2.3146,2.3169,2.3169,2.317,2.317,0,2.307,2.3069,2.3079,2.3091,2.3099,2.3108,2.3115,2.3122,2.3118,2.3127,2.314,2.3147,2.3162,2.3174,2.3184,2.3186,2.3178,2.3177,2.3181,2.3183,2.3184,2.3184,2.3122,2.3175,2.3174,2.3174,2.3174,2.3174,2.31,2.3112,2.3119,2.3131,2.3137,2.3145,2.3156,2.3157,2.3168,2.318,2.3177,2.3192,2.3198,2.3211,2.3215,2.3227,2.3219,2.3226,2.3228,2.3229,2.3232,2.3183,2.3229,2.3229,2.3229,2.3229,2.3229,0,2.3142,2.3146,2.3158,2.3169,2.318,2.3173,2.3181,2.319,2.3204,2.3211,2.3221,2.3237,2.3249,2.3251,2.3263,2.3273,2.3269,2.3276,2.3275,2.3276,2.3238,2.3233,2.3279,2.3279,2.3279,2.3279,2.3279,2.3279,2.3164,2.3184,2.3185,2.3208,2.3212,2.3228,2.3233,2.3241,2.3246,2.3265,2.3276,2.3277,2.3283,2.3295,2.3307,2.3307,2.3312,2.332,2.3319,2.3283,2.3278,2.3273,2.3268,2.3321,2.3321,2.3355,2.3356,2.3356]},{"header":{"parameterUnit":"m.s-1","parameterCategory":1,"la1":30.2991,"la2":30.254,"lo1":-89.0895,"lo2":-89.0444,"dy":0.0017,"dx":0.0017,"nx":28,"ny":28,"refTime":"2025-12-29T03:00:00:Z","depth":0,"parameterNumber":3,"parameterNumberName":"V-component_of_WINDS"},"data":[0,0,0,0,0,0,0,0,0,0,0,0,0,0,0,0,0,0,0,0,0,0,0,0,0,0,0,0,0,0,0,0,0,0,0,0,0,0,0,0,0,0,0,0,0,0,0,0,0,0,0,0,0,0,0,0,0,0,-9.9694,-9.9696,0,-9.9888,-9.9891,-9.9893,-9.9804,-9.98,-9.9795,-9.979,-9.9983,-9.9993,-10.0002,0,0,0,0,0,0,0,0,0,0,0,0,0,-9.9243,-9.9251,-9.9694,-9.9696,-9.9699,-9.9888,-9.9891,-9.9893,-9.9805,-9.9799,-9.9794,-9.9788,-9.998,-9.9991,-10.0003,0,0,0,0,0,0,0,0,0,0,0,0,0,-9.9438,-9.9254,-9.9693,-9.9678,-9.9678,-9.9887,-9.9891,-9.9894,-9.9807,-9.9799,-9.9792,-9.9785,-9.9976,-9.999,-10.0005,-10.0238,0,0,-10.0049,-10.0055,0,0,0,0,0,0,0,0,-9.9427,-9.9454,-9.9678,-9.9679,-9.968,-9.9815,-9.9802,-10.0009,-9.9808,-9.9758,-9.979,-9.9782,-9.9933,-9.995,-10.0002,-10.0247,-10.0256,-10.005,-10.0059,-10.0065,-10.0069,0,0,0,0,0,0,0,-9.9413,-9.9446,-9.977,-9.9681,-9.9683,-9.966,-9.968,-9.9841,-9.9883,-9.9762,-9.9756,-9.978,-9.9932,-9.9989,-10.0006,-10.0259,-10.005,-10.0062,-10.0071,-10.0077,-10.0708,-10.0716,0,0,0,0,0,0,-9.9401,-9.9435,-9.9764,-9.9776,-9.9533,-9.9674,-9.9696,-9.9779,-9.9881,-9.989,-9.9786,-9.9775,-9.9968,-9.9989,-10.0013,-10.0296,-10.0065,-10.0078,-10.0087,-10.07,-10.071,-10.0719,0,0,0,0,0,0,-9.9392,-9.9431,-9.9756,-9.9604,-9.9644,-9.9689,-9.9783,-9.9786,-9.9843,-9.99,-9.9906,-9.9837,-9.9963,-9.9992,-10.0184,-10.0301,-10.0085,-10.0098,-10.069,-10.0703,-10.0714,-10.0862,0,0,0,0,0,0,-9.9379,-9.9428,-9.9518,-9.9607,-9.9652,-9.9927,-9.979,-9.9795,-9.9869,-9.9857,-9.9949,-9.9957,-9.9959,-10.0163,-10.0199,-10.0317,-10.0109,-10.068,-10.0696,-10.071,-10.0847,-10.0878,-10.0904,0,0,0,0,0,-9.9363,-9.955,-9.9523,-9.9564,-9.9766,-9.9933,-9.9959,-9.9959,-9.9879,-9.997,-10.0006,-9.9954,-10.0282,-10.0183,-10.0223,-10.0347,-10.0673,-10.0692,-10.0709,-10.0834,-10.0872,-10.0903,0,0,0,0,0,0,-9.9471,-9.9561,-9.9533,-9.9754,-9.9837,-9.9918,-10.0032,-9.9999,-10.0104,-10.0088,-10.0082,-10.0103,-10.0303,-10.0343,-10.0232,-10.058,-10.0465,-10.0492,-10.0547,-10.0583,-10.0611,-10.0597,-10.0121,0,0,0,0,0,-9.9522,-9.9651,-9.9722,-9.9911,-9.9954,-9.9987,-10.0059,-10.0053,-10.0137,-10.0171,-10.0222,-10.0304,-10.0426,-10.0506,-10.0621,-10.0852,-10.0872,-10.0957,-10.0986,-10.1009,-10.1032,-10.116,-10.1199,-10.0778,-10.0778,-10.0778,0,0,-9.9625,-9.9691,-9.9772,-9.9934,-9.9998,-10.0132,-10.0016,-10.0162,-10.0261,-10.0192,-10.0378,-10.0418,-10.051,-10.0723,-10.082,-10.0763,-10.1153,-10.1032,-10.105,-10.1061,-10.1183,-10.1223,-10.1258,-10.0791,-10.0789,-10.0787,0,0,-9.9884,-9.9946,-10.0111,-10.0178,-10.0277,-10.0298,-10.0338,-10.0425,-10.045,-10.0637,-10.0589,-10.0706,-10.0915,-10.0983,-10.1045,-10.1333,-10.129,-10.1371,-10.152,-10.1645,-10.1678,-10.1707,-10.1812,-10.1849,-10.1394,-10.1394,-10.1394,0,-10.0,-10.0202,-10.02,-10.0352,-10.0425,-10.0372,-10.0539,-10.0603,-10.0734,-10.0785,-10.072,-10.0985,-10.1042,-10.1272,-10.1343,-10.1394,-10.144,-10.136,-10.1673,-10.1703,-10.173,-10.183,-10.1869,-10.1403,-10.1402,-10.1401,-10.14,0,-10.0341,-10.0481,-10.0603,-10.0734,-10.082,-10.0979,-10.1001,-10.1089,-10.1075,-10.1103,-10.1294,-10.1362,-10.1491,-10.1545,-10.1531,-10.1774,-10.1736,-10.1673,-10.1557,-10.178,-10.1874,-10.1911,-10.1417,-10.1413,-10.1411,-10.1408,0,0,-10.0672,-10.0803,-10.0848,-10.0908,-10.1014,-10.1122,-10.1278,-10.1407,-10.1483,-10.1575,-10.1706,-10.1886,-10.183,-10.1901,-10.1894,-10.2003,-10.223,-10.1927,-10.1929,-10.1983,-10.2504,-10.2552,-10.2596,-10.2202,-10.2209,-10.2215,-10.2497,0,-10.094,-10.1217,-10.1221,-10.1475,-10.1606,-10.1558,-10.1694,-10.1774,-10.1804,-10.1918,-10.195,-10.2079,-10.1994,-10.2037,-10.2142,-10.218,-10.2335,-10.2159,-10.2324,-10.233,-10.2304,-10.2645,-10.2696,-10.2959,-10.2533,-10.2539,-10.2543,0,-10.1289,-10.1397,-10.1664,-10.1755,-10.181,-10.1932,-10.2053,-10.2162,-10.2252,-10.2266,-10.2347,-10.2326,-10.2484,-10.2364,-10.2583,-10.2464,-10.2531,-10.256,-10.257,-10.2586,-10.2451,-10.2672,-10.3042,-10.3082,-10.2601,-10.2596,-10.2592,0,-10.1507,-10.1718,-10.1906,-10.1958,-10.2068,-10.2156,-10.2205,-10.2287,-10.2366,-10.247,-10.2521,-10.2641,-10.2707,-10.2801,-10.2812,-10.2722,-10.3033,-10.2912,-10.305,-10.305,-10.3118,-10.3114,-10.3506,-10.3159,-10.3158,-10.3157,-10.3157,0,-10.1807,-10.1973,-10.2006,-10.2122,-10.2307,-10.231,-10.2493,-10.2534,-10.2609,-10.2732,-10.2696,-10.2812,-10.2819,-10.2938,-10.2947,-10.3128,-10.3157,-10.3173,-10.3174,-10.3178,-10.3176,-10.3223,-10.3205,-10.3168,-10.3166,-10.3164,-10.3162,0,-10.2081,-10.211,-10.2313,-10.2401,-10.2427,-10.256,-10.2635,-10.2745,-10.2773,-10.2929,-10.2965,-10.3008,-10.3146,-10.3167,-10.3327,-10.3333,-10.3552,-10.3532,-10.3523,-10.3521,-10.3658,-10.3646,-10.4095,-10.4155,-10.3767,-10.377,-10.3774,0,-10.2271,-10.2399,-10.2502,-10.2584,-10.2639,-10.2769,-10.285,-10.2858,-10.2943,-10.3057,-10.3154,-10.3289,-10.3397,-10.362,-10.3664,-10.3787,-10.3772,-10.3921,-10.379,-10.3791,-10.3777,-10.377,-10.3783,-10.3946,-10.3951,-10.3954,-10.3957,0,-10.2607,-10.2616,-10.2735,-10.2861,-10.2959,-10.3057,-10.315,-10.3218,-10.3238,-10.3336,-10.3478,-10.3563,-10.3729,-10.3864,-10.3987,-10.4035,-10.4001,-10.3998,-10.4037,-10.4042,-10.4033,-10.4042,-10.3594,-10.3988,-10.3985,-10.3982,-10.3981,-10.3979,-10.2846,-10.2959,-10.305,-10.3185,-10.3256,-10.3345,-10.3454,-10.3497,-10.3617,-10.3755,-10.3752,-10.3909,-10.3996,-10.4158,-10.4215,-10.4337,-10.4289,-10.4344,-10.4358,-10.4372,-10.4387,-10.4012,-10.4359,-10.4358,-10.4357,-10.4357,-10.4356,0,-10.3182,-10.3239,-10.3363,-10.3496,-10.3603,-10.3563,-10.3664,-10.3755,-10.3895,-10.3981,-10.409,-10.4254,-10.4385,-10.4441,-10.457,-10.4657,-10.4645,-10.4691,-10.4685,-10.4697,-10.4422,-10.4377,-10.4699,-10.4699,-10.4699,-10.4699,-10.4699,-10.4699,-10.3369,-10.3558,-10.3579,-10.3803,-10.3858,-10.4014,-10.4076,-10.4157,-10.4226,-10.4413,-10.4523,-10.4559,-10.4633,-10.4768,-10.4886,-10.4899,-10.4949,-10.5003,-10.5009,-10.4751,-10.4716,-10.4683,-10.4641,-10.5013,-10.5014,-10.5274,-10.5277,-10.5279]}]]